User: anonymous   Login
Location: *
(50.3440°N, 18.6237°E)
Time: 16:00:48
(UTC+00:00)
Language:

Cosmos 1933 - Orbit

View from above orbital plane
View from above orbital plane
View from above satellite
View from above satellite

Ground track
Ground track

The orbit data is extracted from the following two-line orbital elements,

1 18958U 88020A   21062.70304712  .00000377  00000-0  25284-4 0  9996
2 18958  82.5278 235.2137 0011214 356.8160   3.2993 15.03866935774040
Epoch (UTC): 03 March 2021 16:52:23
Eccentricity: 0.0011214
inclination: 82.5278°
perigee height: 547 km
apogee height: 563 km
right ascension of ascending node: 235.2137°
argument of perigee: 356.8160°
revolutions per day: 15.03866935
mean anomaly at epoch: 3.2993°
orbit number at epoch: 77404

The dashed part of the orbit path shows where the satellite is in the earth's shadow,  

DLR